Back to catalog

COSMOS 1331

AliveMilitaryLEO
NORAD 13027·PAYLOAD·🇷🇺 Russia

Launched Jan 7, 1982 from Plesetsk Cosmodrome

Loading…

Next Passes (next 24 hours)

TLE

FreshSource: Space-Track

Epoch: Sep 14, 2026, 05:59 UTC

1 13027U 82001A   26257.24942086  .00000097  00000-0  40759-4 0  9996
2 13027  74.0499 352.0393 0024774 275.3144  84.5183 14.37750289340375

Track COSMOS 1331 in real time with AllMySat

Download on the App Store